| time (UTC) | temp C | wind direction | speed KPH | gust KPH | rain 1hr cm | rain 24hr cm | rain mn cm | humidity % | barometer mb |
| 20260507144033 | 15 | 172 | 11.3 | 17.7 | 0.00 | 0.00 | 0.00 | 69 | 1015.5 |
| 20260507143533 | 15 | 138 | 8.0 | 16.1 | 0.00 | 0.00 | 0.00 | 67 | 1015.6 |
| 20260507143100 | 15 | 147 | 8.0 | 16.1 | 0.00 | 0.00 | 0.00 | 68 | 1015.6 |
| 20260507142536 | 15 | 168 | 6.4 | 19.3 | 0.00 | 0.00 | 0.00 | 68 | 1015.5 |
| 20260507142033 | 15 | 152 | 8.0 | 19.3 | 0.00 | 0.00 | 0.00 | 65 | 1015.6 |
| 20260507141604 | 15 | 209 | 9.7 | 19.3 | 0.00 | 0.00 | 0.00 | 68 | 1015.6 |
| 20260507141035 | 15 | 130 | 9.7 | 19.3 | 0.00 | 0.00 | 0.00 | 69 | 1015.8 |
| 20260507140537 | 15 | 140 | 8.0 | 20.9 | 0.00 | 0.00 | 0.00 | 69 | 1015.8 |
| 20260507140050 | 15 | 205 | 9.7 | 25.7 | 0.00 | 0.00 | 0.00 | 69 | 1015.7 |
| 20260507135533 | 15 | 140 | 9.7 | 25.7 | 0.00 | 0.00 | 0.00 | 68 | 1015.7 |
| 20260507135034 | 15 | 142 | 9.7 | 22.5 | 0.00 | 0.00 | 0.00 | 65 | 1015.8 |
| 20260507134546 | 15 | 157 | 9.7 | 22.5 | 0.00 | 0.00 | 0.00 | 65 | 1015.8 |
| 20260507134034 | 15 | 136 | 9.7 | 24.1 | 0.00 | 0.00 | 0.00 | 65 | 1015.8 |
| 20260507133534 | 15 | 175 | 9.7 | 24.1 | 0.00 | 0.00 | 0.00 | 63 | 1015.7 |
| 20260507133046 | 16 | 126 | 8.0 | 22.5 | 0.00 | 0.00 | 0.00 | 60 | 1015.7 |
| 20260507132533 | 16 | 128 | 9.7 | 20.9 | 0.00 | 0.00 | 0.00 | 58 | 1015.7 |
| 20260507132032 | 16 | 145 | 8.0 | 20.9 | 0.00 | 0.00 | 0.00 | 62 | 1015.7 |
| 20260507131554 | 15 | 157 | 6.4 | 19.3 | 0.00 | 0.00 | 0.00 | 61 | 1015.6 |
| 20260507131038 | 15 | 101 | 11.3 | 24.1 | 0.00 | 0.00 | 0.00 | 61 | 1015.7 |
| 20260507130536 | 15 | 135 | 8.0 | 24.1 | 0.00 | 0.00 | 0.00 | 60 | 1015.8 |
| 20260507130046 | 15 | 146 | 8.0 | 20.9 | 0.00 | 0.00 | 0.00 | 61 | 1015.8 |
| 20260507125533 | 15 | 133 | 9.7 | 20.9 | 0.00 | 0.00 | 0.00 | 62 | 1015.8 |
| 20260507125038 | 15 | 176 | 9.7 | 20.9 | 0.00 | 0.00 | 0.00 | 60 | 1015.8 |
| 20260507124543 | 15 | 158 | 9.7 | 20.9 | 0.00 | 0.00 | 0.00 | 62 | 1015.8 |
| 20260507124035 | 15 | 115 | 8.0 | 20.9 | 0.00 | 0.00 | 0.00 | 61 | 1015.8 |
| 20260507123534 | 15 | 146 | 11.3 | 20.9 | 0.00 | 0.00 | 0.00 | 62 | 1015.7 |
| 20260507123103 | 16 | 230 | 9.7 | 20.9 | 0.00 | 0.00 | 0.00 | 59 | 1015.9 |
| 20260507122535 | 16 | 168 | 6.4 | 25.7 | 0.00 | 0.00 | 0.00 | 59 | 1015.9 |
| 20260507122033 | 16 | 146 | 11.3 | 25.7 | 0.00 | 0.00 | 0.00 | 59 | 1016.0 |
| 20260507121546 | 16 | 130 | 9.7 | 22.5 | 0.00 | 0.00 | 0.00 | 59 | 1015.9 |
| 20260507121033 | 16 | 169 | 6.4 | 22.5 | 0.00 | 0.00 | 0.00 | 57 | 1016.0 |
| 20260507120532 | 16 | 145 | 9.7 | 22.5 | 0.00 | 0.00 | 0.00 | 59 | 1016.0 |
| 20260507120047 | 16 | 148 | 8.0 | 20.9 | 0.00 | 0.00 | 0.00 | 59 | 1016.1 |
| 20260507115535 | 16 | 167 | 6.4 | 20.9 | 0.00 | 0.00 | 0.00 | 59 | 1016.0 |
| 20260507115037 | 16 | 172 | 8.0 | 22.5 | 0.00 | 0.00 | 0.00 | 62 | 1016.1 |
| 20260507114553 | 16 | 154 | 9.7 | 22.5 | 0.00 | 0.00 | 0.00 | 60 | 1016.1 |
| 20260507114037 | 16 | 161 | 8.0 | 17.7 | 0.00 | 0.00 | 0.00 | 61 | 1016.1 |
| 20260507113537 | 16 | 205 | 9.7 | 19.3 | 0.00 | 0.00 | 0.00 | 61 | 1016.1 |
| 20260507113046 | 16 | 159 | 6.4 | 20.9 | 0.00 | 0.00 | 0.00 | 62 | 1016.0 |
| 20260507112537 | 16 | 112 | 8.0 | 20.9 | 0.00 | 0.00 | 0.00 | 62 | 1016.1 |
| 20260507112037 | 16 | 130 | 9.7 | 20.9 | 0.00 | 0.00 | 0.00 | 64 | 1016.1 |
| 20260507111545 | 16 | 189 | 9.7 | 17.7 | 0.00 | 0.00 | 0.00 | 61 | 1016.1 |
| 20260507111038 | 16 | 163 | 4.8 | 16.1 | 0.00 | 0.00 | 0.00 | 64 | 1016.1 |
| 20260507110537 | 15 | 190 | 8.0 | 20.9 | 0.00 | 0.00 | 0.00 | 66 | 1016.1 |
| 20260507110050 | 15 | 91 | 8.0 | 22.5 | 0.00 | 0.00 | 0.00 | 66 | 1016.1 |
| 20260507105534 | 15 | 149 | 9.7 | 22.5 | 0.00 | 0.00 | 0.00 | 66 | 1016.2 |
| 20260507105035 | 15 | 132 | 9.7 | 20.9 | 0.00 | 0.00 | 0.00 | 65 | 1016.2 |
| 20260507104549 | 15 | 160 | 6.4 | 19.3 | 0.00 | 0.00 | 0.00 | 66 | 1016.3 |
| 20260507104037 | 15 | 144 | 8.0 | 24.1 | 0.00 | 0.00 | 0.00 | 67 | 1016.2 |
| 20260507103534 | 15 | 107 | 9.7 | 24.1 | 0.00 | 0.00 | 0.00 | 68 | 1016.2 |
| 20260507103048 | 15 | 148 | 9.7 | 20.9 | 0.00 | 0.00 | 0.00 | 67 | 1016.2 |
| 20260507102538 | 15 | 126 | 6.4 | 17.7 | 0.00 | 0.00 | 0.00 | 66 | 1016.1 |
| 20260507102035 | 15 | 166 | 8.0 | 17.7 | 0.00 | 0.00 | 0.00 | 66 | 1016.1 |
| 20260507101546 | 15 | 120 | 8.0 | 20.9 | 0.00 | 0.00 | 0.00 | 65 | 1016.1 |
| 20260507101034 | 15 | 207 | 9.7 | 20.9 | 0.00 | 0.00 | 0.00 | 66 | 1016.2 |
| 20260507100537 | 15 | 170 | 6.4 | 19.3 | 0.00 | 0.00 | 0.00 | 66 | 1016.2 |
| 20260507100052 | 15 | 123 | 9.7 | 19.3 | 0.00 | 0.00 | 0.00 | 64 | 1016.2 |
| 20260507095537 | 15 | 192 | 8.0 | 20.9 | 0.00 | 0.00 | 0.00 | 65 | 1016.3 |
| 20260507095041 | 15 | 192 | 8.0 | 20.9 | 0.00 | 0.00 | 0.00 | 64 | 1016.2 |
| 20260507094549 | 15 | 173 | 6.4 | 16.1 | 0.00 | 0.00 | 0.00 | 64 | 1016.2 |
| 20260507094037 | 15 | 153 | 4.8 | 14.5 | 0.00 | 0.00 | 0.00 | 65 | 1016.1 |
| 20260507093537 | 15 | 210 | 6.4 | 16.1 | 0.00 | 0.00 | 0.00 | 65 | 1016.1 |
| 20260507093048 | 15 | 128 | 4.8 | 16.1 | 0.00 | 0.00 | 0.00 | 67 | 1016.1 |
| 20260507092537 | 14 | 186 | 8.0 | 16.1 | 0.00 | 0.00 | 0.00 | 67 | 1016.0 |
| 20260507092036 | 14 | 164 | 6.4 | 16.1 | 0.00 | 0.00 | 0.00 | 67 | 1016.2 |
| 20260507091547 | 14 | 184 | 4.8 | 16.1 | 0.00 | 0.00 | 0.00 | 68 | 1016.1 |
| 20260507091037 | 13 | 117 | 6.4 | 16.1 | 0.00 | 0.00 | 0.00 | 68 | 1016.2 |
| 20260507090534 | 14 | 127 | 4.8 | 14.5 | 0.00 | 0.00 | 0.00 | 69 | 1016.2 |
| 20260507090057 | 13 | 167 | 6.4 | 20.9 | 0.00 | 0.00 | 0.00 | 69 | 1016.2 |
| 20260507085534 | 13 | 183 | 6.4 | 20.9 | 0.00 | 0.00 | 0.00 | 69 | 1016.3 |
| 20260507085045 | 13 | 177 | 4.8 | 16.1 | 0.00 | 0.00 | 0.00 | 71 | 1016.2 |
| 20260507084553 | 13 | 150 | 3.2 | 17.7 | 0.00 | 0.00 | 0.00 | 73 | 1016.1 |
| 20260507084037 | 13 | 142 | 4.8 | 17.7 | 0.00 | 0.00 | 0.00 | 75 | 1016.1 |
| 20260507083537 | 13 | 164 | 6.4 | 17.7 | 0.00 | 0.00 | 0.00 | 75 | 1016.2 |
| 20260507083052 | 13 | 115 | 6.4 | 17.7 | 0.00 | 0.00 | 0.00 | 74 | 1016.1 |
| 20260507082538 | 13 | 134 | 4.8 | 14.5 | 0.00 | 0.00 | 0.00 | 74 | 1016.1 |
| 20260507082037 | 13 | 140 | 6.4 | 14.5 | 0.00 | 0.00 | 0.00 | 74 | 1016.0 |
| 20260507081553 | 13 | 103 | 8.0 | 14.5 | 0.00 | 0.00 | 0.00 | 74 | 1016.0 |
| 20260507081037 | 13 | 151 | 3.2 | 12.9 | 0.00 | 0.00 | 0.00 | 75 | 1015.9 |
| 20260507080537 | 12 | 135 | 4.8 | 14.5 | 0.00 | 0.00 | 0.00 | 74 | 1015.9 |
| 20260507080109 | 12 | 153 | 6.4 | 14.5 | 0.00 | 0.00 | 0.00 | 74 | 1016.0 |
| 20260507075537 | 13 | 108 | 4.8 | 11.3 | 0.00 | 0.00 | 0.00 | 74 | 1016.0 |
| 20260507075035 | 12 | 121 | 4.8 | 11.3 | 0.00 | 0.00 | 0.00 | 75 | 1016.0 |
| 20260507074546 | 12 | 134 | 4.8 | 11.3 | 0.00 | 0.00 | 0.00 | 75 | 1016.0 |
| 20260507074035 | 12 | 162 | 3.2 | 11.3 | 0.00 | 0.00 | 0.00 | 75 | 1016.0 |
| 20260507073535 | 11 | 107 | 3.2 | 11.3 | 0.00 | 0.00 | 0.00 | 75 | 1016.0 |
| 20260507073047 | 11 | 149 | 3.2 | 6.4 | 0.00 | 0.00 | 0.00 | 74 | 1016.1 |
| 20260507072535 | 11 | 98 | 0.0 | 6.4 | 0.00 | 0.00 | 0.00 | 75 | 1016.0 |
| 20260507072035 | 11 | 98 | 1.6 | 6.4 | 0.00 | 0.00 | 0.00 | 74 | 1016.0 |
| 20260507071546 | 10 | 129 | 1.6 | 4.8 | 0.00 | 0.00 | 0.00 | 74 | 1015.9 |
| 20260507071035 | 10 | 129 | 1.6 | 4.8 | 0.00 | 0.00 | 0.00 | 75 | 1016.0 |
| 20260507070535 | 10 | 0 | 1.6 | 4.8 | 0.00 | 0.00 | 0.00 | 75 | 1015.9 |
| 20260507070049 | 10 | 0 | 1.6 | 4.8 | 0.00 | 0.00 | 0.00 | 75 | 1015.9 |
| 20260507065537 | 10 | 129 | 1.6 | 4.8 | 0.00 | 0.00 | 0.00 | 75 | 1015.9 |
| 20260507065036 | 10 | 73 | 1.6 | 4.8 | 0.00 | 0.00 | 0.00 | 76 | 1015.9 |
| 20260507064621 | 10 | 0 | 0.0 | 4.8 | 0.00 | 0.00 | 0.00 | 76 | 1015.9 |
| 20260507064037 | 9 | 0 | 0.0 | 4.8 | 0.00 | 0.00 | 0.00 | 77 | 1015.9 |
| 20260507063536 | 9 | 73 | 0.0 | 4.8 | 0.00 | 0.00 | 0.00 | 78 | 1015.9 |
| 20260507063051 | 8 | 0 | 1.6 | 4.8 | 0.00 | 0.00 | 0.00 | 78 | 1015.8 |
| 20260507062537 | 8 | 24 | 0.0 | 3.2 | 0.00 | 0.00 | 0.00 | 78 | 1015.8 |
| 20260507062037 | 8 | 24 | 0.0 | 4.8 | 0.00 | 0.00 | 0.00 | 78 | 1015.9 |
| 20260507061548 | 8 | 24 | 0.0 | 4.8 | 0.00 | 0.00 | 0.00 | 78 | 1015.8 |
| 20260507061037 | 8 | 48 | 1.6 | 4.8 | 0.00 | 0.00 | 0.00 | 79 | 1015.7 |
| 20260507060537 | 8 | 50 | 0.0 | 4.8 | 0.00 | 0.00 | 0.00 | 79 | 1015.8 |
| 20260507060109 | 8 | 57 | 0.0 | 6.4 | 0.00 | 0.00 | 0.00 | 79 | 1015.7 |
| 20260507055537 | 8 | 0 | 0.0 | 8.0 | 0.00 | 0.00 | 0.00 | 79 | 1015.6 |
| 20260507055036 | 8 | 71 | 3.2 | 8.0 | 0.00 | 0.00 | 0.00 | 79 | 1015.6 |
| 20260507054552 | 7 | 24 | 1.6 | 8.0 | 0.00 | 0.00 | 0.00 | 79 | 1015.5 |
| 20260507054038 | 7 | 71 | 3.2 | 8.0 | 0.00 | 0.00 | 0.00 | 79 | 1015.5 |
| 20260507053537 | 7 | 48 | 1.6 | 8.0 | 0.00 | 0.00 | 0.00 | 79 | 1015.5 |
| 20260507053048 | 7 | 47 | 3.2 | 8.0 | 0.00 | 0.00 | 0.00 | 79 | 1015.5 |
| 20260507052537 | 7 | 38 | 3.2 | 8.0 | 0.00 | 0.00 | 0.00 | 78 | 1015.5 |
| 20260507052037 | 7 | 43 | 3.2 | 6.4 | 0.00 | 0.00 | 0.00 | 78 | 1015.5 |
| 20260507051603 | 7 | 34 | 1.6 | 8.0 | 0.00 | 0.00 | 0.00 | 78 | 1015.5 |
| 20260507051036 | 7 | 32 | 1.6 | 8.0 | 0.00 | 0.00 | 0.00 | 78 | 1015.6 |
| 20260507050538 | 7 | 31 | 3.2 | 8.0 | 0.00 | 0.00 | 0.00 | 78 | 1015.4 |
| 20260507050050 | 7 | 33 | 1.6 | 8.0 | 0.00 | 0.00 | 0.00 | 78 | 1015.4 |
| 20260507045536 | 7 | 32 | 3.2 | 8.0 | 0.00 | 0.08 | 0.00 | 78 | 1015.3 |
| 20260507045036 | 7 | 41 | 1.6 | 6.4 | 0.00 | 0.08 | 0.00 | 78 | 1015.4 |
| 20260507044550 | 7 | 34 | 1.6 | 6.4 | 0.00 | 0.08 | 0.00 | 78 | 1015.4 |
| 20260507044040 | 7 | 51 | 1.6 | 6.4 | 0.00 | 0.08 | 0.00 | 78 | 1015.4 |
| 20260507043537 | 7 | 335 | 1.6 | 6.4 | 0.00 | 0.08 | 0.00 | 78 | 1015.4 |
| 20260507043049 | 7 | 0 | 1.6 | 8.0 | 0.00 | 0.08 | 0.00 | 77 | 1015.4 |
| 20260507042538 | 7 | 0 | 1.6 | 8.0 | 0.00 | 0.08 | 0.00 | 77 | 1015.3 |
| 20260507042037 | 7 | 63 | 1.6 | 9.7 | 0.00 | 0.08 | 0.00 | 77 | 1015.3 |
| 20260507041553 | 7 | 51 | 1.6 | 9.7 | 0.00 | 0.08 | 0.00 | 77 | 1015.2 |
| 20260507041038 | 7 | 38 | 1.6 | 8.0 | 0.00 | 0.08 | 0.00 | 77 | 1015.2 |
| 20260507040535 | 7 | 71 | 3.2 | 12.9 | 0.00 | 0.08 | 0.00 | 77 | 1015.2 |
| 20260507040047 | 7 | 63 | 3.2 | 12.9 | 0.00 | 0.08 | 0.00 | 77 | 1015.2 |
| 20260507035537 | 7 | 43 | 4.8 | 12.9 | 0.00 | 0.08 | 0.00 | 77 | 1015.2 |
| 20260507035034 | 7 | 55 | 3.2 | 9.7 | 0.00 | 0.08 | 0.00 | 76 | 1015.2 |
| 20260507034547 | 7 | 32 | 3.2 | 8.0 | 0.00 | 0.08 | 0.00 | 76 | 1015.2 |
| 20260507034037 | 7 | 51 | 3.2 | 9.7 | 0.00 | 0.08 | 0.00 | 76 | 1015.2 |
| 20260507033537 | 7 | 37 | 3.2 | 9.7 | 0.00 | 0.08 | 0.00 | 76 | 1015.3 |
| 20260507033048 | 7 | 35 | 3.2 | 9.7 | 0.00 | 0.08 | 0.00 | 76 | 1015.1 |
| 20260507032537 | 7 | 53 | 4.8 | 11.3 | 0.00 | 0.08 | 0.00 | 76 | 1015.2 |
| 20260507032039 | 7 | 57 | 3.2 | 12.9 | 0.00 | 0.08 | 0.00 | 75 | 1015.2 |
| 20260507031547 | 7 | 31 | 4.8 | 12.9 | 0.00 | 0.08 | 0.00 | 75 | 1015.2 |
| 20260507031037 | 7 | 5 | 3.2 | 8.0 | 0.00 | 0.08 | 0.00 | 75 | 1015.1 |
| 20260507030537 | 7 | 32 | 3.2 | 9.7 | 0.00 | 0.08 | 0.00 | 75 | 1015.1 |
| 20260507030048 | 7 | 17 | 3.2 | 11.3 | 0.00 | 0.08 | 0.00 | 75 | 1015.1 |
| 20260507025537 | 7 | 24 | 4.8 | 11.3 | 0.00 | 0.08 | 0.00 | 75 | 1015.0 |
| 20260507025039 | 7 | 26 | 3.2 | 11.3 | 0.00 | 0.08 | 0.00 | 75 | 1015.0 |
| 20260507024546 | 7 | 42 | 3.2 | 9.7 | 0.00 | 0.08 | 0.00 | 75 | 1015.0 |
| 20260507024033 | 7 | 36 | 4.8 | 12.9 | 0.00 | 0.08 | 0.00 | 74 | 1015.0 |
| 20260507023536 | 7 | 40 | 4.8 | 12.9 | 0.00 | 0.08 | 0.00 | 74 | 1015.0 |
| 20260507023045 | 7 | 44 | 4.8 | 12.9 | 0.00 | 0.08 | 0.00 | 74 | 1015.0 |
| 20260507022537 | 7 | 18 | 4.8 | 12.9 | 0.00 | 0.08 | 0.00 | 74 | 1014.9 |
| 20260507022037 | 7 | 37 | 4.8 | 12.9 | 0.00 | 0.08 | 0.00 | 74 | 1014.9 |
| 20260507021545 | 7 | 15 | 4.8 | 12.9 | 0.00 | 0.08 | 0.00 | 74 | 1015.0 |
| 20260507021037 | 8 | 40 | 4.8 | 12.9 | 0.00 | 0.08 | 0.00 | 73 | 1014.9 |
| 20260507020537 | 8 | 19 | 4.8 | 14.5 | 0.00 | 0.08 | 0.00 | 73 | 1014.9 |
| 20260507015540 | 8 | 55 | 4.8 | 12.9 | 0.00 | 0.08 | 0.00 | 73 | 1015.0 |
| 20260507015037 | 8 | 53 | 6.4 | 14.5 | 0.00 | 0.08 | 0.00 | 73 | 1014.9 |
| 20260507014548 | 8 | 38 | 3.2 | 14.5 | 0.00 | 0.08 | 0.00 | 73 | 1014.9 |
| 20260507014037 | 8 | 36 | 4.8 | 14.5 | 0.00 | 0.08 | 0.00 | 73 | 1014.9 |
| 20260507013539 | 8 | 34 | 3.2 | 14.5 | 0.00 | 0.08 | 0.00 | 73 | 1014.8 |
| 20260507013047 | 8 | 57 | 6.4 | 14.5 | 0.00 | 0.08 | 0.00 | 73 | 1014.8 |
| 20260507012537 | 8 | 25 | 3.2 | 11.3 | 0.00 | 0.08 | 0.00 | 73 | 1014.8 |
| 20260507012037 | 8 | 46 | 3.2 | 11.3 | 0.00 | 0.08 | 0.00 | 73 | 1014.7 |
| 20260507011546 | 8 | 32 | 3.2 | 11.3 | 0.00 | 0.08 | 0.00 | 73 | 1014.9 |
| 20260507011037 | 8 | 31 | 3.2 | 9.7 | 0.00 | 0.08 | 0.00 | 73 | 1014.8 |
| 20260507010537 | 8 | 41 | 3.2 | 9.7 | 0.00 | 0.08 | 0.00 | 73 | 1014.8 |
| 20260507010100 | 8 | 58 | 4.8 | 9.7 | 0.00 | 0.08 | 0.00 | 73 | 1015.0 |
| 20260507005537 | 8 | 37 | 3.2 | 9.7 | 0.00 | 0.08 | 0.00 | 73 | 1014.9 |
| 20260507005037 | 8 | 24 | 3.2 | 9.7 | 0.00 | 0.08 | 0.00 | 73 | 1014.9 |
| 20260507004545 | 8 | 21 | 3.2 | 8.0 | 0.00 | 0.08 | 0.00 | 72 | 1014.8 |
| 20260507004037 | 8 | 30 | 3.2 | 8.0 | 0.00 | 0.08 | 0.00 | 72 | 1015.0 |
| 20260507003537 | 8 | 0 | 3.2 | 8.0 | 0.00 | 0.08 | 0.00 | 72 | 1014.9 |
| 20260507003052 | 9 | 42 | 1.6 | 6.4 | 0.00 | 0.08 | 0.00 | 72 | 1014.9 |
| 20260507002537 | 9 | 42 | 1.6 | 6.4 | 0.00 | 0.08 | 0.00 | 72 | 1014.9 |
| 20260507002037 | 9 | 42 | 1.6 | 6.4 | 0.00 | 0.08 | 0.00 | 72 | 1015.0 |
| 20260507001554 | 9 | 42 | 1.6 | 4.8 | 0.00 | 0.08 | 0.00 | 72 | 1015.0 |
| 20260507001037 | 9 | 42 | 1.6 | 4.8 | 0.00 | 0.08 | 0.00 | 72 | 1015.0 |
| 20260507000538 | 9 | 42 | 1.6 | 4.8 | 0.00 | 0.08 | 0.00 | 72 | 1015.0 |
| 20260507000057 | 9 | 0 | 0.0 | 4.8 | 0.00 | 0.08 | 0.00 | 71 | 1015.0 |
| 20260506235537 | 10 | 42 | 0.0 | 3.2 | 0.00 | 0.08 | 0.00 | 71 | 1014.9 |
| 20260506235037 | 10 | 0 | 0.0 | 4.8 | 0.00 | 0.08 | 0.00 | 71 | 1015.0 |
| 20260506234547 | 10 | 0 | 1.6 | 4.8 | 0.00 | 0.08 | 0.00 | 71 | 1014.9 |
| 20260506234037 | 10 | 42 | 0.0 | 4.8 | 0.00 | 0.08 | 0.00 | 71 | 1014.9 |
| 20260506233537 | 10 | 42 | 1.6 | 4.8 | 0.00 | 0.08 | 0.00 | 71 | 1014.8 |
| 20260506233048 | 10 | 42 | 1.6 | 4.8 | 0.00 | 0.08 | 0.00 | 71 | 1014.8 |
| 20260506232537 | 10 | 42 | 1.6 | 4.8 | 0.00 | 0.08 | 0.00 | 71 | 1014.8 |
| 20260506232037 | 10 | 272 | 1.6 | 4.8 | 0.00 | 0.08 | 0.00 | 71 | 1014.9 |
| 20260506231607 | 10 | 272 | 1.6 | 4.8 | 0.00 | 0.08 | 0.00 | 71 | 1014.9 |
| 20260506231037 | 11 | 0 | 0.0 | 4.8 | 0.00 | 0.08 | 0.00 | 71 | 1014.9 |
| 20260506230537 | 11 | 272 | 0.0 | 4.8 | 0.00 | 0.08 | 0.00 | 71 | 1014.9 |
| 20260506230106 | 11 | 272 | 1.6 | 4.8 | 0.00 | 0.08 | 0.00 | 72 | 1014.8 |
| 20260506225537 | 11 | 272 | 0.0 | 3.2 | 0.00 | 0.08 | 0.08 | 72 | 1014.9 |
| 20260506225037 | 11 | 272 | 1.6 | 3.2 | 0.00 | 0.08 | 0.08 | 72 | 1014.8 |
| 20260506224547 | 11 | 272 | 0.0 | 4.8 | 0.00 | 0.08 | 0.08 | 72 | 1014.9 |
| 20260506224036 | 11 | 272 | 0.0 | 4.8 | 0.00 | 0.08 | 0.08 | 72 | 1014.8 |
| 20260506223538 | 11 | 272 | 1.6 | 4.8 | 0.00 | 0.08 | 0.08 | 72 | 1014.8 |
| 20260506223045 | 11 | 272 | 0.0 | 3.2 | 0.00 | 0.08 | 0.08 | 73 | 1014.8 |
| 20260506222537 | 10 | 272 | 0.0 | 1.6 | 0.00 | 0.08 | 0.08 | 73 | 1014.7 |
| 20260506222040 | 10 | 0 | 0.0 | 0.0 | 0.00 | 0.08 | 0.08 | 72 | 1014.8 |
| 20260506221555 | 11 | 0 | 0.0 | 0.0 | 0.00 | 0.08 | 0.08 | 72 | 1014.7 |
| 20260506221040 | 11 | 0 | 0.0 | 0.0 | 0.00 | 0.08 | 0.08 | 72 | 1014.7 |
| 20260506220536 | 11 | 0 | 0.0 | 1.6 | 0.00 | 0.08 | 0.08 | 72 | 1014.6 |
| 20260506220110 | 11 | 0 | 0.0 | 1.6 | 0.00 | 0.08 | 0.08 | 71 | 1014.6 |
| 20260506215536 | 11 | 0 | 0.0 | 3.2 | 0.00 | 0.08 | 0.08 | 71 | 1014.6 |
| 20260506215037 | 11 | 0 | 0.0 | 3.2 | 0.00 | 0.08 | 0.08 | 71 | 1014.5 |
| 20260506214550 | 11 | 272 | 0.0 | 3.2 | 0.00 | 0.08 | 0.08 | 71 | 1014.6 |
| 20260506214037 | 11 | 0 | 0.0 | 3.2 | 0.00 | 0.08 | 0.08 | 71 | 1014.5 |
| 20260506213540 | 11 | 0 | 1.6 | 3.2 | 0.00 | 0.08 | 0.08 | 71 | 1014.5 |
| 20260506213103 | 11 | 272 | 0.0 | 3.2 | 0.00 | 0.08 | 0.08 | 71 | 1014.6 |
| 20260506212537 | 11 | 0 | 1.6 | 3.2 | 0.00 | 0.08 | 0.08 | 70 | 1014.6 |
| 20260506212037 | 11 | 0 | 0.0 | 3.2 | 0.00 | 0.08 | 0.08 | 70 | 1014.6 |
| 20260506211546 | 11 | 0 | 0.0 | 3.2 | 0.00 | 0.08 | 0.08 | 70 | 1014.6 |
| 20260506211037 | 11 | 0 | 0.0 | 4.8 | 0.00 | 0.08 | 0.08 | 70 | 1014.6 |
| 20260506210537 | 11 | 272 | 1.6 | 4.8 | 0.00 | 0.08 | 0.08 | 69 | 1014.5 |
| 20260506210053 | 11 | 272 | 1.6 | 3.2 | 0.00 | 0.08 | 0.08 | 69 | 1014.5 |
| 20260506205536 | 11 | 0 | 0.0 | 3.2 | 0.00 | 0.08 | 0.08 | 69 | 1014.6 |
| 20260506205036 | 11 | 272 | 1.6 | 4.8 | 0.00 | 0.08 | 0.08 | 69 | 1014.5 |
| 20260506204547 | 11 | 272 | 0.0 | 6.4 | 0.00 | 0.08 | 0.08 | 69 | 1014.4 |
| 20260506204037 | 12 | 272 | 3.2 | 6.4 | 0.00 | 0.08 | 0.08 | 68 | 1014.4 |
| 20260506203540 | 11 | 272 | 1.6 | 6.4 | 0.00 | 0.08 | 0.08 | 68 | 1014.4 |
| 20260506203045 | 12 | 272 | 1.6 | 6.4 | 0.00 | 0.08 | 0.08 | 68 | 1014.4 |
| 20260506202535 | 12 | 272 | 1.6 | 6.4 | 0.00 | 0.08 | 0.08 | 68 | 1014.3 |
| 20260506202037 | 12 | 272 | 1.6 | 8.0 | 0.00 | 0.08 | 0.08 | 67 | 1014.2 |
| 20260506201550 | 12 | 272 | 1.6 | 8.0 | 0.00 | 0.08 | 0.08 | 67 | 1014.2 |
| 20260506201035 | 12 | 272 | 3.2 | 8.0 | 0.00 | 0.08 | 0.08 | 67 | 1014.1 |
| 20260506200537 | 12 | 268 | 3.2 | 11.3 | 0.00 | 0.08 | 0.08 | 66 | 1014.1 |
| 20260506200046 | 12 | 262 | 3.2 | 11.3 | 0.00 | 0.08 | 0.08 | 66 | 1014.1 |
| 20260506195537 | 12 | 282 | 3.2 | 11.3 | 0.00 | 0.08 | 0.08 | 66 | 1014.1 |
| 20260506195037 | 12 | 254 | 4.8 | 11.3 | 0.00 | 0.08 | 0.08 | 66 | 1014.0 |
| 20260506194550 | 12 | 248 | 4.8 | 11.3 | 0.00 | 0.08 | 0.08 | 65 | 1013.9 |
| 20260506194036 | 12 | 265 | 3.2 | 9.7 | 0.00 | 0.08 | 0.08 | 66 | 1013.9 |
| 20260506193537 | 12 | 264 | 3.2 | 9.7 | 0.00 | 0.08 | 0.08 | 66 | 1013.9 |
| 20260506193046 | 12 | 243 | 3.2 | 9.7 | 0.00 | 0.08 | 0.08 | 66 | 1013.8 |
| 20260506192537 | 12 | 250 | 3.2 | 9.7 | 0.00 | 0.08 | 0.08 | 66 | 1013.8 |
| 20260506192037 | 12 | 249 | 4.8 | 12.9 | 0.00 | 0.08 | 0.08 | 66 | 1013.8 |
| 20260506191550 | 12 | 254 | 3.2 | 12.9 | 0.00 | 0.08 | 0.08 | 66 | 1013.8 |
| 20260506191038 | 12 | 258 | 3.2 | 12.9 | 0.00 | 0.08 | 0.08 | 66 | 1013.8 |
| 20260506190540 | 13 | 269 | 3.2 | 12.9 | 0.00 | 0.08 | 0.08 | 66 | 1013.6 |
| 20260506190046 | 13 | 250 | 6.4 | 12.9 | 0.00 | 0.08 | 0.08 | 65 | 1013.6 |
| 20260506185537 | 13 | 257 | 4.8 | 12.9 | 0.00 | 0.08 | 0.08 | 65 | 1013.6 |
| 20260506185035 | 13 | 248 | 4.8 | 12.9 | 0.00 | 0.08 | 0.08 | 64 | 1013.6 |
| 20260506184559 | 13 | 228 | 4.8 | 12.9 | 0.00 | 0.08 | 0.08 | 64 | 1013.7 |
| 20260506184037 | 13 | 259 | 4.8 | 12.9 | 0.00 | 0.08 | 0.08 | 64 | 1013.7 |
| 20260506183539 | 13 | 221 | 6.4 | 16.1 | 0.00 | 0.08 | 0.08 | 63 | 1013.6 |
| 20260506183045 | 13 | 198 | 8.0 | 16.1 | 0.00 | 0.08 | 0.08 | 62 | 1013.5 |
| 20260506182536 | 13 | 229 | 3.2 | 14.5 | 0.00 | 0.08 | 0.08 | 62 | 1013.5 |
| 20260506182037 | 13 | 229 | 6.4 | 14.5 | 0.00 | 0.08 | 0.08 | 61 | 1013.4 |
| 20260506181553 | 13 | 259 | 6.4 | 11.3 | 0.00 | 0.08 | 0.08 | 61 | 1013.4 |
| 20260506181037 | 14 | 215 | 3.2 | 9.7 | 0.00 | 0.08 | 0.08 | 60 | 1013.3 |
| 20260506180537 | 14 | 213 | 1.6 | 9.7 | 0.00 | 0.08 | 0.08 | 59 | 1013.4 |
| 20260506180057 | 15 | 209 | 0.0 | 1.6 | 0.00 | 0.08 | 0.08 | 49 | 1013.3 |
| 20260506175536 | 15 | 0 | 0.0 | 6.4 | 0.00 | 0.08 | 0.08 | 48 | 1013.2 |
| 20260506175040 | 15 | 0 | 0.0 | 6.4 | 0.00 | 0.08 | 0.08 | 48 | 1013.1 |
| 20260506174544 | 15 | 0 | 0.0 | 6.4 | 0.00 | 0.08 | 0.08 | 48 | 1013.1 |
| 20260506174037 | 15 | 327 | 0.0 | 4.8 | 0.00 | 0.08 | 0.08 | 49 | 1013.1 |
| 20260506173537 | 15 | 0 | 0.0 | 11.3 | 0.00 | 0.08 | 0.08 | 49 | 1013.0 |
| 20260506173050 | 15 | 0 | 0.0 | 11.3 | 0.00 | 0.08 | 0.08 | 49 | 1013.1 |
| 20260506172537 | 15 | 43 | 1.6 | 11.3 | 0.00 | 0.08 | 0.08 | 49 | 1013.1 |
| 20260506172040 | 15 | 0 | 3.2 | 9.7 | 0.00 | 0.08 | 0.08 | 48 | 1013.0 |
| 20260506171556 | 15 | 0 | 0.0 | 8.0 | 0.00 | 0.08 | 0.08 | 48 | 1013.1 |
| 20260506171037 | 15 | 0 | 0.0 | 8.0 | 0.00 | 0.08 | 0.08 | 48 | 1013.0 |
| 20260506170536 | 15 | 340 | 0.0 | 14.5 | 0.00 | 0.08 | 0.08 | 47 | 1013.0 |
| 20260506170050 | 15 | 0 | 0.0 | 14.5 | 0.00 | 0.08 | 0.08 | 47 | 1013.0 |
| 20260506165537 | 15 | 46 | 0.0 | 9.7 | 0.00 | 0.08 | 0.08 | 47 | 1013.0 |
| 20260506165037 | 15 | 0 | 0.0 | 9.7 | 0.00 | 0.08 | 0.08 | 46 | 1013.0 |
| 20260506164551 | 15 | 360 | 1.6 | 9.7 | 0.00 | 0.08 | 0.08 | 46 | 1013.0 |
| 20260506164037 | 15 | 0 | 1.6 | 20.9 | 0.00 | 0.08 | 0.08 | 47 | 1013.0 |
| 20260506163536 | 15 | 0 | 0.0 | 20.9 | 0.00 | 0.08 | 0.08 | 46 | 1013.0 |
| 20260506163048 | 15 | 31 | 4.8 | 20.9 | 0.00 | 0.08 | 0.08 | 47 | 1013.0 |
| 20260506162537 | 15 | 16 | 3.2 | 14.5 | 0.00 | 0.08 | 0.08 | 47 | 1013.0 |
| 20260506162038 | 15 | 34 | 4.8 | 14.5 | 0.00 | 0.08 | 0.08 | 46 | 1013.1 |
| 20260506161550 | 15 | 0 | 3.2 | 14.5 | 0.00 | 0.08 | 0.08 | 47 | 1013.0 |
| 20260506161038 | 15 | 41 | 3.2 | 14.5 | 0.00 | 0.08 | 0.08 | 45 | 1013.0 |
| 20260506160538 | 15 | 0 | 0.0 | 14.5 | 0.00 | 0.08 | 0.08 | 45 | 1013.0 |
| 20260506160101 | 15 | 0 | 0.0 | 14.5 | 0.00 | 0.08 | 0.08 | 44 | 1012.9 |
| 20260506155537 | 15 | 0 | 0.0 | 14.5 | 0.00 | 0.08 | 0.08 | 44 | 1012.9 |
| 20260506155037 | 15 | 0 | 1.6 | 14.5 | 0.00 | 0.08 | 0.08 | 44 | 1012.9 |
| 20260506154552 | 15 | 0 | 1.6 | 12.9 | 0.00 | 0.08 | 0.08 | 44 | 1013.0 |
| 20260506154038 | 15 | 38 | 3.2 | 12.9 | 0.00 | 0.08 | 0.08 | 43 | 1013.0 |
| 20260506153537 | 15 | 0 | 4.8 | 14.5 | 0.00 | 0.08 | 0.08 | 42 | 1013.0 |
| 20260506153047 | 15 | 0 | 4.8 | 14.5 | 0.00 | 0.08 | 0.08 | 43 | 1012.9 |
| 20260506152536 | 15 | 321 | 4.8 | 9.7 | 0.00 | 0.08 | 0.08 | 43 | 1013.0 |
| 20260506152037 | 15 | 5 | 3.2 | 16.1 | 0.00 | 0.08 | 0.08 | 44 | 1013.0 |
| 20260506151545 | 15 | 317 | 6.4 | 16.1 | 0.00 | 0.08 | 0.08 | 44 | 1013.0 |
| 20260506151036 | 15 | 334 | 6.4 | 14.5 | 0.00 | 0.08 | 0.08 | 44 | 1013.0 |
| 20260506150537 | 15 | 36 | 4.8 | 14.5 | 0.00 | 0.08 | 0.08 | 44 | 1013.0 |
| 20260506150054 | 15 | 11 | 6.4 | 14.5 | 0.00 | 0.08 | 0.08 | 43 | 1013.0 |
| 20260506145537 | 15 | 360 | 3.2 | 12.9 | 0.00 | 0.08 | 0.08 | 43 | 1013.1 |
| 20260506145039 | 15 | 67 | 4.8 | 11.3 | 0.00 | 0.08 | 0.08 | 42 | 1013.1 |
| 20260506144559 | 15 | 46 | 4.8 | 11.3 | 0.00 | 0.08 | 0.08 | 43 | 1013.2 |